Other Public Products
Issued by NWS Charleston, SC

Current Version | Previous Version | Graphics & Text | Print | Product List | Glossary On
Versions: 1 2 3 4 5 6 7 8 9 10 11 12 13 14 15 16 17 18 19 20 21 22 23 24 25 26 27 28 29 30 31 32 33 34 35 36 37 38 39 40 41 42 43 44 45 46 47 48 49 50
065 FPUS82 KCHS 181727 OPUCHS TEST...KCHS/KSAV Gateway Observations...TEST National Weather Service Charleston SC 1200 PM EST SUN FEB 18 2018 NOTE: "fair" indicates few or no clouds below 12,000 feet with no significant weather and/or obstructions to visibility. SCZ050-WAZ558-NCZ071-TXZ119-213-PAZ071-DCZ001-FLZ074-172-MI076- NYZ176-178-MAZ016-IL014-TNZ027-NJZ106-GAZ044-MD014-181800- ...Gateway Observations for Charleston International... CITY SKY/WX TMP DP RH WIND PRES REMARKS Chas Airport CLOUDY 67 58 72 NE9 30.29R Seattle CLOUDY 35 29 78 SE7 29.66R WCI 29 Charlotte FAIR 59 37 44 NE9 30.35R Dallas DFW CLOUDY 52 50 93 SE7 30.11F FOG Dallas Love CLOUDY 52 50 93 SE9 30.13F FOG Philladelphia FAIR 42 25 50 NW13 30.38S Wash National FAIR 47 31 53 N8 30.43R Baltimore FAIR 43 35 73 W6 30.41R Miami PTSUNNY 83 66 56 E15 30.23F Detroit PTSUNNY 35 24 64 S10 30.32F WCI 27 Newark FAIR 41 24 51 W14G23 30.32R Laguardia FAIR 43 22 43 NW13 30.32R J F K FAIR 40 24 53 NW12 30.34R WCI 33 Boston Logan FAIR 39 25 57 NW13G23 30.18F WCI 31 Ft. Lauderdale PTSUNNY 79 70 74 E13 30.22F Chicago O`Hare PTSUNNY 28 24 85 S12 30.26S WCI 18 Chicago Midway PTSUNNY 28 24 85 S12 30.28S WCI 18 Houston Bush CLOUDY 68 64 87 SE10 30.15S Houston Hobby CLOUDY 67 67 100 SE6 30.15S FOG Nashville PTSUNNY 49 35 58 E7 30.31F Atlanta FAIR 61 47 59 VRB5 30.27F $$ GAZ044-118-TXZ119-213-NCZ071-DCZ001-MDZ014-506-PAZ021-071-NJZ106- NYZ176-178-MAZ106-OHZ011-021-055-MIZ076-KYZ091-ILZ014-INZ047- MNZ060-ONZ431-181800- ...Gateway Observations for Savannah International... CITY SKY/WX TMP DP RH WIND PRES REMARKS Savannah Arpt CLOUDY 70 63 78 VRB3 30.27S Atlanta FAIR 61 47 59 VRB5 30.27F Charlotte FAIR 59 37 44 NE9 30.35R Dallas DFW CLOUDY 52 50 93 SE7 30.11F FOG Houston Bush CLOUDY 68 64 87 SE10 30.15S Wash National FAIR 47 31 53 N8 30.43R Wash Dulles FAIR 45 31 58 W3 30.42R Baltimore FAIR 43 35 73 W6 30.41R Philadelphia FAIR 42 25 50 NW13 30.38S Newark FAIR 41 24 51 W14G23 30.32R Laguardia FAIR 43 22 43 NW13 30.32R J F K FAIR 40 24 53 NW12 30.34R WCI 33 Boston FAIR 39 25 57 NW13G23 30.18F WCI 31 Pittsburg CLOUDY 36 27 69 CALM 30.35S Akron PTSUNNY 37 26 64 S6 30.34S WCI 32 Cleveland FAIR 38 28 67 SW8 30.37F WCI 32 Cincinnati FAIR 39 32 76 E7 30.35F WCI 34 Columbus CLOUDY 38 29 70 S12 30.38S WCI 30 Detroit PTSUNNY 35 24 64 S10 30.32F WCI 27 Chicago O`Hare PTSUNNY 28 24 85 S12 30.26S WCI 18 Minneapolis CLOUDY 31 24 75 SE22G35 29.73F WCI 18 Indianapolis PTSUNNY 36 30 79 SE13 30.31F WCI 27 Toronto Canada PTSUNNY 36 21 55 W13G20 30.31R WCI 27 $$

USA.gov is the U.S. government's official web portal to all federal, state and local government web resources and services.